Location: Allaines
(49.9632°N, 2.9458°E)
Time: 17:51:55
(UTC+00:00)

Cosmos 2208 Rocket - Pass Details

Date: 09 April 2020
Orbit: 754 x 806 km, 74.0° (Epoch: 28 May)

Event Time Altitude Azimuth Distance (km) Brightness Sun altitude
Rises 21:27:48 0° 333° (NNW) 3,225 8.5 -24.4°
Reaches altitude 10° 21:30:11 10° 330° (NNW) 2,300 7.5 -24.6°
Maximum altitude 21:35:18 61° 252° (WSW) 866 4.2 -25.1°
Enters shadow 21:36:04 55° 213° (SSW) 921 4.2 -25.2°
